[[{"header":{"parameterUnit":"m.s-1","parameterCategory":1,"la1":30.2991,"la2":30.254,"lo1":-89.0895,"lo2":-89.0444,"dy":0.0017,"dx":0.0017,"nx":28,"ny":28,"refTime":"2024-12-14T09:00:00:Z","depth":0,"parameterNumber":2,"parameterNumberName":"U-component_of_WINDS"},"data":[0,0,0,0,0,0,0,0,0,0,0,0,0,0,0,0,0,0,0,0,0,0,0,0,0,0,0,0,0,0,0,0,0,0,0,0,0,0,0,0,0,0,0,0,0,0,0,0,0,0,0,0,0,0,0,0,0,0,-4.6686,-4.6686,0,-4.6631,-4.663,-4.663,-4.6531,-4.6529,-4.6527,-4.6525,-4.6469,-4.647,-4.647,0,0,0,0,0,0,0,0,0,0,0,0,0,-4.6709,-4.6709,-4.6686,-4.6686,-4.6685,-4.6631,-4.663,-4.663,-4.6531,-4.6529,-4.6527,-4.6525,-4.6469,-4.647,-4.647,0,0,0,0,0,0,0,0,0,0,0,0,0,-4.6681,-4.6709,-4.6686,-4.6629,-4.6624,-4.6631,-4.663,-4.6629,-4.6532,-4.6529,-4.6526,-4.6524,-4.6469,-4.647,-4.647,-4.6529,0,0,-4.6471,-4.6471,0,0,0,0,0,0,0,0,-4.6683,-4.668,-4.6638,-4.6633,-4.6627,-4.6585,-4.6618,-4.6596,-4.6532,-4.6567,-4.6525,-4.6522,-4.651,-4.6507,-4.6503,-4.6526,-4.6524,-4.6471,-4.6472,-4.6472,-4.6472,0,0,0,0,0,0,0,-4.6685,-4.6682,-4.6664,-4.6638,-4.6631,-4.6607,-4.66,-4.6613,-4.6555,-4.6563,-4.6556,-4.6551,-4.6507,-4.6503,-4.6501,-4.6523,-4.6471,-4.6472,-4.6472,-4.6472,-4.6595,-4.6598,0,0,0,0,0,0,-4.6695,-4.6684,-4.6666,-4.6663,-4.6649,-4.6609,-4.6601,-4.6601,-4.6555,-4.6545,-4.6553,-4.6547,-4.6503,-4.6501,-4.6499,-4.6565,-4.6472,-4.6472,-4.6472,-4.6592,-4.6596,-4.6599,0,0,0,0,0,0,-4.6696,-4.6694,-4.6668,-4.6672,-4.6667,-4.6612,-4.6613,-4.6602,-4.6598,-4.6547,-4.6536,-4.656,-4.6501,-4.6498,-4.6523,-4.6562,-4.6472,-4.6473,-4.6588,-4.6593,-4.6597,-4.6699,0,0,0,0,0,0,-4.6697,-4.6695,-4.6716,-4.6673,-4.6667,-4.6693,-4.6615,-4.6603,-4.6599,-4.6589,-4.655,-4.6541,-4.6499,-4.6523,-4.6523,-4.6561,-4.6473,-4.6584,-4.659,-4.6596,-4.6692,-4.6707,-4.6719,0,0,0,0,0,-4.6698,-4.6746,-4.6717,-4.6716,-4.6692,-4.6695,-4.6692,-4.6641,-4.6602,-4.6623,-4.6591,-4.6542,-4.6558,-4.6526,-4.6526,-4.6564,-4.6582,-4.6589,-4.6595,-4.6686,-4.6704,-4.6719,0,0,0,0,0,0,-4.6794,-4.6739,-4.6707,-4.6742,-4.6725,-4.6678,-4.6703,-4.6662,-4.6654,-4.6645,-4.6584,-4.6576,-4.661,-4.6589,-4.6554,-4.662,-4.6563,-4.657,-4.6632,-4.6648,-4.6661,-4.6665,-4.6473,0,0,0,0,0,-4.682,-4.6827,-4.6779,-4.6815,-4.6808,-4.6758,-4.6757,-4.6721,-4.6699,-4.6691,-4.666,-4.6642,-4.6643,-4.6645,-4.6642,-4.669,-4.668,-4.6716,-4.673,-4.6741,-4.6748,-4.6773,-4.6789,-4.6621,-4.6621,-4.6621,0,0,-4.6872,-4.6843,-4.6851,-4.6834,-4.6815,-4.6825,-4.6751,-4.6764,-4.6771,-4.6693,-4.6714,-4.6692,-4.6668,-4.6704,-4.6719,-4.6689,-4.6793,-4.675,-4.676,-4.676,-4.6782,-4.6798,-4.6812,-4.6626,-4.6625,-4.6624,0,0,-4.6972,-4.6951,-4.698,-4.6964,-4.6937,-4.6904,-4.6912,-4.6873,-4.6855,-4.6876,-4.6819,-4.6827,-4.6829,-4.6815,-4.6808,-4.6908,-4.6863,-4.6909,-4.6979,-4.7005,-4.7018,-4.7029,-4.7066,-4.7079,-4.6916,-4.6916,-4.6916,0,-4.704,-4.7052,-4.7,-4.7017,-4.7011,-4.6943,-4.6972,-4.696,-4.6934,-4.6933,-4.6899,-4.6903,-4.6882,-4.6915,-4.694,-4.6936,-4.6944,-4.6912,-4.702,-4.7031,-4.7041,-4.7075,-4.7089,-4.6922,-4.6921,-4.6921,-4.692,0,-4.7138,-4.7147,-4.7174,-4.7152,-4.715,-4.7173,-4.7125,-4.713,-4.7096,-4.7067,-4.709,-4.7063,-4.7055,-4.7061,-4.7026,-4.7091,-4.7073,-4.7031,-4.6971,-4.7064,-4.7094,-4.7107,-4.693,-4.6928,-4.6926,-4.6925,0,0,-4.7293,-4.7245,-4.7255,-4.7246,-4.7214,-4.722,-4.7242,-4.7235,-4.7241,-4.7227,-4.7244,-4.725,-4.7212,-4.7205,-4.7169,-4.7191,-4.7274,-4.7147,-4.7145,-4.7171,-4.7344,-4.7375,-4.7391,-4.7245,-4.7247,-4.7249,-4.7346,0,-4.7385,-4.7418,-4.7374,-4.7417,-4.7426,-4.7364,-4.7383,-4.7367,-4.7342,-4.7346,-4.7319,-4.7324,-4.7273,-4.7269,-4.7289,-4.726,-4.7308,-4.7252,-4.7261,-4.7262,-4.7268,-4.7407,-4.7439,-4.7531,-4.7358,-4.736,-4.7361,0,-4.7496,-4.7489,-4.7534,-4.7503,-4.7505,-4.7522,-4.7514,-4.7519,-4.7501,-4.7481,-4.7475,-4.7433,-4.7453,-4.7398,-4.7426,-4.7389,-4.7391,-4.7378,-4.7381,-4.7378,-4.7316,-4.7408,-4.7559,-4.7573,-4.738,-4.7378,-4.7377,0,-4.7605,-4.7607,-4.7635,-4.7629,-4.7592,-4.7607,-4.7592,-4.7571,-4.7571,-4.7564,-4.7564,-4.756,-4.7557,-4.7556,-4.7515,-4.7478,-4.7549,-4.7489,-4.7534,-4.7535,-4.7549,-4.7549,-4.7703,-4.7553,-4.7553,-4.7552,-4.7552,0,-4.7712,-4.7742,-4.7683,-4.77,-4.7733,-4.7683,-4.7717,-4.7696,-4.7679,-4.7691,-4.7638,-4.7651,-4.7596,-4.7605,-4.7573,-4.7602,-4.7601,-4.7587,-4.7578,-4.7591,-4.7593,-4.759,-4.7582,-4.7556,-4.7555,-4.7555,-4.7554,0,-4.7838,-4.78,-4.7826,-4.7791,-4.7783,-4.7809,-4.7779,-4.7794,-4.7767,-4.7784,-4.7785,-4.7743,-4.775,-4.771,-4.7709,-4.7688,-4.7733,-4.7713,-4.7739,-4.7732,-4.7779,-4.7775,-4.7936,-4.7955,-4.7794,-4.7795,-4.7797,0,-4.7907,-4.7929,-4.7898,-4.7903,-4.7892,-4.79,-4.7901,-4.7854,-4.7857,-4.7839,-4.7857,-4.786,-4.7859,-4.7874,-4.7844,-4.7844,-4.7824,-4.788,-4.7823,-4.7837,-4.7824,-4.7823,-4.7826,-4.7891,-4.7893,-4.7895,-4.7896,0,-4.8036,-4.8017,-4.8019,-4.8017,-4.8019,-4.8014,-4.8006,-4.8014,-4.7963,-4.797,-4.7977,-4.7977,-4.7978,-4.7982,-4.7977,-4.7963,-4.7922,-4.7915,-4.7925,-4.7938,-4.7952,-4.7946,-4.7771,-4.7911,-4.791,-4.7909,-4.7908,-4.7907,-4.8135,-4.8152,-4.8134,-4.8139,-4.8129,-4.8124,-4.8137,-4.8113,-4.8118,-4.8115,-4.8088,-4.8101,-4.8085,-4.8074,-4.8065,-4.8075,-4.8048,-4.8063,-4.8067,-4.8071,-4.8079,-4.7953,-4.8074,-4.8074,-4.8073,-4.8073,-4.8073,0,-4.826,-4.8247,-4.8252,-4.8244,-4.8249,-4.8212,-4.8202,-4.8209,-4.8221,-4.821,-4.8211,-4.8221,-4.8226,-4.8198,-4.8199,-4.8213,-4.8195,-4.8215,-4.8213,-4.8211,-4.8103,-4.8094,-4.823,-4.823,-4.823,-4.823,-4.823,-4.823,-4.8326,-4.8354,-4.8334,-4.8358,-4.8344,-4.8356,-4.8354,-4.835,-4.8341,-4.8354,-4.8358,-4.8341,-4.8323,-4.8324,-4.8327,-4.8319,-4.8322,-4.8349,-4.8334,-4.8234,-4.8218,-4.8203,-4.8194,-4.835,-4.835,-4.8441,-4.8442,-4.8443]},{"header":{"parameterUnit":"m.s-1","parameterCategory":1,"la1":30.2991,"la2":30.254,"lo1":-89.0895,"lo2":-89.0444,"dy":0.0017,"dx":0.0017,"nx":28,"ny":28,"refTime":"2024-12-14T09:00:00:Z","depth":0,"parameterNumber":3,"parameterNumberName":"V-component_of_WINDS"},"data":[0,0,0,0,0,0,0,0,0,0,0,0,0,0,0,0,0,0,0,0,0,0,0,0,0,0,0,0,0,0,0,0,0,0,0,0,0,0,0,0,0,0,0,0,0,0,0,0,0,0,0,0,0,0,0,0,0,0,0.9609,0.9609,0,0.9627,0.9627,0.9627,0.9683,0.9684,0.9686,0.9687,0.9701,0.9701,0.97,0,0,0,0,0,0,0,0,0,0,0,0,0,0.9621,0.962,0.9608,0.9609,0.9609,0.9627,0.9627,0.9627,0.9683,0.9684,0.9686,0.9687,0.9702,0.9701,0.97,0,0,0,0,0,0,0,0,0,0,0,0,0,0.9624,0.962,0.9608,0.9639,0.9642,0.9627,0.9627,0.9627,0.9683,0.9684,0.9686,0.9688,0.9702,0.9701,0.97,0.9655,0,0,0.9696,0.9695,0,0,0,0,0,0,0,0,0.9624,0.9624,0.9634,0.9637,0.964,0.9655,0.9637,0.9636,0.9682,0.9667,0.9687,0.9689,0.9684,0.9684,0.9684,0.9656,0.9656,0.9696,0.9695,0.9695,0.9694,0,0,0,0,0,0,0,0.9624,0.9624,0.9616,0.9634,0.9638,0.9651,0.9654,0.9637,0.9665,0.9668,0.9673,0.9674,0.9686,0.9685,0.9684,0.9656,0.9696,0.9695,0.9694,0.9694,0.9596,0.9594,0,0,0,0,0,0,0.962,0.9623,0.9615,0.9616,0.9637,0.965,0.9653,0.9648,0.9665,0.9669,0.9673,0.9677,0.9686,0.9686,0.9685,0.9636,0.9695,0.9694,0.9693,0.9598,0.9596,0.9594,0,0,0,0,0,0,0.962,0.9618,0.9614,0.9621,0.9621,0.9647,0.9642,0.9647,0.9646,0.9668,0.9673,0.9666,0.9687,0.9687,0.9663,0.9637,0.9693,0.9692,0.96,0.9597,0.9595,0.9536,0,0,0,0,0,0,0.962,0.9618,0.9601,0.962,0.9621,0.9592,0.964,0.9646,0.9645,0.965,0.9664,0.9667,0.9689,0.9664,0.9662,0.9636,0.9691,0.9603,0.9599,0.9596,0.954,0.9531,0.9524,0,0,0,0,0,0.962,0.9582,0.96,0.9599,0.9601,0.959,0.9591,0.9617,0.9642,0.9626,0.9641,0.9667,0.9641,0.9662,0.9659,0.9633,0.9604,0.96,0.9596,0.9544,0.9533,0.9524,0,0,0,0,0,0,0.9557,0.9585,0.9605,0.9573,0.9579,0.96,0.958,0.9604,0.9602,0.9607,0.9639,0.9642,0.9614,0.9621,0.9644,0.9592,0.9627,0.9622,0.9588,0.9578,0.957,0.9569,0.969,0,0,0,0,0,0.954,0.9531,0.9555,0.9524,0.9527,0.9553,0.9549,0.9569,0.9576,0.9579,0.9592,0.9597,0.959,0.9585,0.9579,0.9542,0.9546,0.9523,0.9515,0.9508,0.9503,0.9486,0.9476,0.958,0.958,0.958,0,0,0.9503,0.9518,0.9509,0.9512,0.9519,0.9509,0.9554,0.954,0.9532,0.9576,0.9556,0.9565,0.9573,0.9543,0.9531,0.9549,0.9476,0.9503,0.9497,0.9496,0.9481,0.9471,0.9462,0.9577,0.9577,0.9578,0,0,0.9432,0.9441,0.9418,0.9425,0.9437,0.9455,0.945,0.9468,0.9477,0.9457,0.9491,0.9482,0.9469,0.9474,0.9475,0.941,0.9434,0.9407,0.9363,0.9347,0.9338,0.9331,0.9309,0.9301,0.9402,0.9402,0.9402,0,0.9384,0.937,0.9402,0.9387,0.9388,0.943,0.9407,0.9412,0.942,0.942,0.944,0.9428,0.9436,0.9409,0.9393,0.9392,0.9387,0.9405,0.9337,0.9331,0.9324,0.9304,0.9295,0.9399,0.9399,0.9399,0.94,0,0.9313,0.9303,0.9282,0.9292,0.9291,0.9271,0.93,0.9295,0.9316,0.9333,0.9313,0.9325,0.9324,0.932,0.9339,0.9296,0.9307,0.9332,0.9367,0.9311,0.9292,0.9284,0.9394,0.9395,0.9396,0.9397,0,0,0.9199,0.923,0.9222,0.9228,0.9246,0.9239,0.9222,0.9224,0.9219,0.9225,0.9212,0.9202,0.9227,0.9227,0.9248,0.9233,0.9183,0.9261,0.9261,0.9246,0.9138,0.912,0.911,0.92,0.9199,0.9198,0.9138,0,0.9132,0.9107,0.9136,0.9104,0.9097,0.9139,0.9125,0.9134,0.9149,0.9145,0.9161,0.9155,0.9187,0.9188,0.9175,0.9192,0.9162,0.9196,0.9189,0.9188,0.9185,0.91,0.9079,0.9022,0.9131,0.9129,0.9129,0,0.9049,0.9054,0.9022,0.9045,0.9043,0.903,0.9035,0.903,0.9043,0.9055,0.9058,0.9085,0.9071,0.9106,0.9087,0.9111,0.9109,0.9117,0.9116,0.9116,0.9154,0.9097,0.9004,0.8996,0.9117,0.9118,0.9119,0,0.8971,0.8969,0.8951,0.8955,0.8981,0.8971,0.8981,0.8996,0.8996,0.9,0.9001,0.9003,0.9004,0.9005,0.9031,0.9054,0.901,0.9047,0.902,0.9019,0.9007,0.9008,0.8913,0.9007,0.9007,0.9007,0.9007,0,0.8893,0.8872,0.8917,0.8905,0.8883,0.8918,0.8896,0.891,0.8923,0.8916,0.8951,0.8943,0.8979,0.8974,0.8995,0.8977,0.8977,0.8987,0.8992,0.8983,0.8982,0.8983,0.8987,0.9005,0.9005,0.9006,0.9006,0,0.8801,0.883,0.8813,0.8841,0.8847,0.883,0.8854,0.8844,0.8864,0.8854,0.8853,0.8883,0.888,0.8907,0.8908,0.8923,0.8895,0.8908,0.8892,0.8895,0.8867,0.887,0.8769,0.8758,0.8858,0.8857,0.8856,0,0.8749,0.8734,0.8762,0.8761,0.877,0.8766,0.8768,0.8802,0.8802,0.8817,0.8806,0.8807,0.8809,0.8802,0.8824,0.8826,0.8839,0.8803,0.8839,0.8831,0.8839,0.884,0.8839,0.8795,0.8794,0.8793,0.8792,0,0.8654,0.8671,0.8672,0.8679,0.868,0.8687,0.8696,0.8692,0.873,0.8728,0.8727,0.8729,0.8733,0.8733,0.874,0.875,0.8777,0.8782,0.8775,0.8766,0.8758,0.8763,0.8871,0.8783,0.8784,0.8785,0.8785,0.8786,0.8581,0.8571,0.859,0.8591,0.8603,0.8611,0.8605,0.8625,0.8625,0.8632,0.8653,0.8648,0.8664,0.8676,0.8684,0.8681,0.8698,0.8689,0.8687,0.8684,0.8679,0.8759,0.8682,0.8683,0.8683,0.8683,0.8683,0,0.8489,0.8504,0.8505,0.8519,0.852,0.8549,0.8561,0.856,0.8556,0.8569,0.8572,0.8572,0.8573,0.8596,0.86,0.8594,0.8606,0.8594,0.8594,0.8596,0.8663,0.8669,0.8583,0.8583,0.8583,0.8583,0.8583,0.8584,0.8441,0.8427,0.8446,0.8438,0.8454,0.8451,0.8456,0.8465,0.8476,0.8474,0.8477,0.8493,0.851,0.8517,0.852,0.8526,0.8526,0.8509,0.852,0.8582,0.8591,0.8601,0.8606,0.8509,0.8509,0.8454,0.8453,0.8453]}]]